Location: G�ndlingen
(48.0142°N, 7.6396°E)
Time: 08:38:41
(UTC+00:00)

Cosmos 1703 - Pass Details

Date: 05 July 2020
Orbit: 525 x 539 km, 82.5° (Epoch: 04 August)

Event Time Altitude Azimuth Distance (km) Brightness Sun altitude
Exits shadow 20:15:29 - 174° (S) 2,467 6.2 -6.5°
Reaches altitude 10° 20:17:13 10° 170° (S) 1,763 5.4 -6.7°
Maximum altitude 20:20:58 50° 95° (E) 679 3.5 -7.1°
Drops below altitude 10° 20:24:44 10° 19° (NNE) 1,779 6.3 -7.6°
Sets 20:26:56 0° 15° (NNE) 2,674 7.3 -7.8°
